TimeCST,TemperatureF,Dew PointF,Humidity,Sea Level PressureIn,VisibilityMPH,Wind Direction,Wind SpeedMPH,Gust SpeedMPH,PrecipitationIn,Events,Conditions,WindDirDegrees,DateUTC
12:15 AM,35.6,35.6,100,30.01,2.5,South,6.9,-,N/A,,Partly Cloudy,170,2013-11-21 06:15:00
12:35 AM,35.6,35.6,100,30.01,2.5,SSE,6.9,-,N/A,,Partly Cloudy,160,2013-11-21 06:35:00
12:55 AM,33.8,33.8,100,30.01,2.0,SSE,5.8,-,N/A,,Partly Cloudy,150,2013-11-21 06:55:00
1:15 AM,33.8,33.8,100,30.01,1.8,SSE,4.6,-,N/A,,Mostly Cloudy,150,2013-11-21 07:15:00
1:35 AM,33.8,33.8,100,30.02,0.8,SSE,4.6,-,N/A,,Overcast,160,2013-11-21 07:35:00
1:55 AM,35.6,35.6,100,30.03,2.0,SSE,6.9,-,N/A,,Overcast,160,2013-11-21 07:55:00
2:15 AM,35.6,33.8,93,30.03,0.2,SSE,6.9,-,N/A,Fog,Fog,160,2013-11-21 08:15:00
2:35 AM,35.6,35.6,100,30.04,0.2,SSE,6.9,-,N/A,Fog,Fog,160,2013-11-21 08:35:00
2:55 AM,35.6,35.6,100,30.05,0.2,South,6.9,-,N/A,Fog,Fog,180,2013-11-21 08:55:00
3:15 AM,35.6,35.6,100,30.06,0.2,Calm,Calm,-,N/A,Fog,Fog,0,2013-11-21 09:15:00
3:35 AM,35.6,-9999,N/A,30.07,0.2,WNW,8.1,-,N/A,,Overcast,300,2013-11-21 09:35:00
3:55 AM,35.6,-9999,N/A,30.07,0.2,NW,6.9,-,N/A,,Light Drizzle,320,2013-11-21 09:55:00
4:15 AM,33.8,-9999,N/A,30.08,0.2,NW,6.9,-,N/A,,Light Drizzle,320,2013-11-21 10:15:00
4:35 AM,32.0,-9999,N/A,30.09,3.0,NNW,13.8,20.7,N/A,,Overcast,340,2013-11-21 10:35:00
4:55 AM,32.0,-9999,N/A,30.11,3.0,North,10.4,18.4,N/A,,Overcast,350,2013-11-21 10:55:00
5:15 AM,30.2,-9999,N/A,30.12,3.0,NNW,12.7,21.9,N/A,,Overcast,340,2013-11-21 11:15:00
5:35 AM,30.2,-9999,N/A,30.11,5.0,North,13.8,20.7,N/A,,Haze,350,2013-11-21 11:35:00
5:55 AM,30.2,-9999,N/A,30.12,6.0,North,16.1,24.2,N/A,,Haze,350,2013-11-21 11:55:00
6:15 AM,30.2,-9999,N/A,30.13,6.0,North,19.6,-,N/A,,Haze,350,2013-11-21 12:15:00
6:35 AM,28.4,-9999,N/A,30.14,7.0,North,19.6,25.3,N/A,,Overcast,360,2013-11-21 12:35:00
6:55 AM,28.4,-9999,N/A,30.14,9.0,North,17.3,28.8,N/A,,Overcast,350,2013-11-21 12:55:00
7:15 AM,26.6,-9999,N/A,30.16,9.0,North,21.9,29.9,N/A,,Overcast,350,2013-11-21 13:15:00
7:35 AM,26.6,-9999,N/A,30.17,7.0,North,23.0,-,N/A,,Overcast,350,2013-11-21 13:35:00
7:55 AM,26.6,-9999,N/A,30.17,7.0,North,19.6,28.8,N/A,,Overcast,360,2013-11-21 13:55:00
8:15 AM,24.8,-9999,N/A,30.20,7.0,North,18.4,28.8,N/A,,Overcast,350,2013-11-21 14:15:00
8:35 AM,24.8,-9999,N/A,30.21,7.0,North,15.0,21.9,N/A,,Overcast,350,2013-11-21 14:35:00
8:55 AM,24.8,-9999,N/A,30.23,8.0,North,19.6,-,N/A,,Overcast,350,2013-11-21 14:55:00
9:15 AM,24.8,-9999,N/A,30.24,10.0,NNW,15.0,23.0,N/A,,Overcast,340,2013-11-21 15:15:00
9:35 AM,24.8,-9999,N/A,30.24,10.0,North,18.4,-,N/A,,Overcast,350,2013-11-21 15:35:00
9:55 AM,24.8,-9999,N/A,30.24,10.0,NNW,16.1,26.5,N/A,,Overcast,340,2013-11-21 15:55:00
10:15 AM,24.8,-9999,N/A,30.25,10.0,North,17.3,24.2,N/A,,Overcast,350,2013-11-21 16:15:00
10:35 AM,24.8,-9999,N/A,30.25,10.0,NNW,17.3,24.2,N/A,,Overcast,340,2013-11-21 16:35:00
10:55 AM,24.8,-9999,N/A,30.25,10.0,North,17.3,25.3,N/A,,Overcast,350,2013-11-21 16:55:00
11:15 AM,24.8,-9999,N/A,30.25,10.0,North,23.0,31.1,N/A,,Overcast,350,2013-11-21 17:15:00
11:35 AM,24.8,-9999,N/A,30.25,10.0,North,18.4,26.5,N/A,,Overcast,350,2013-11-21 17:35:00
11:55 AM,24.8,-9999,N/A,30.26,10.0,North,18.4,-,N/A,,Overcast,350,2013-11-21 17:55:00
12:15 PM,24.8,-9999,N/A,30.26,10.0,North,16.1,23.0,N/A,,Overcast,360,2013-11-21 18:15:00
12:35 PM,24.8,-9999,N/A,30.26,10.0,North,18.4,-,N/A,,Overcast,350,2013-11-21 18:35:00
12:55 PM,24.8,-9999,N/A,30.25,10.0,North,21.9,28.8,N/A,,Overcast,360,2013-11-21 18:55:00
1:15 PM,24.8,-9999,N/A,30.26,10.0,North,19.6,-,N/A,,Overcast,350,2013-11-21 19:15:00
1:35 PM,24.8,-9999,N/A,30.26,10.0,North,15.0,25.3,N/A,,Overcast,350,2013-11-21 19:35:00
1:55 PM,24.8,-9999,N/A,30.26,10.0,North,19.6,26.5,N/A,,Overcast,350,2013-11-21 19:55:00
2:15 PM,24.8,-9999,N/A,30.26,10.0,North,17.3,25.3,N/A,,Overcast,360,2013-11-21 20:15:00
2:35 PM,24.8,-9999,N/A,30.27,10.0,North,19.6,-,N/A,,Overcast,350,2013-11-21 20:35:00
2:55 PM,24.8,-9999,N/A,30.28,10.0,North,17.3,25.3,N/A,,Overcast,350,2013-11-21 20:55:00
3:15 PM,26.6,-9999,N/A,30.29,10.0,North,17.3,26.5,N/A,,Overcast,350,2013-11-21 21:15:00
3:35 PM,26.6,-9999,N/A,30.30,10.0,North,17.3,25.3,N/A,,Overcast,350,2013-11-21 21:35:00
3:55 PM,26.6,-9999,N/A,30.30,10.0,North,21.9,-,N/A,,Overcast,350,2013-11-21 21:55:00
4:15 PM,26.6,-9999,N/A,30.30,9.0,North,24.2,29.9,N/A,,Overcast,360,2013-11-21 22:15:00
4:35 PM,26.6,-9999,N/A,30.32,7.0,North,16.1,26.5,N/A,,Overcast,360,2013-11-21 22:35:00
4:55 PM,24.8,-9999,N/A,30.33,8.0,North,18.4,26.5,N/A,,Overcast,350,2013-11-21 22:55:00
5:15 PM,24.8,-9999,N/A,30.33,8.0,North,19.6,26.5,N/A,,Overcast,360,2013-11-21 23:15:00
5:35 PM,24.8,-9999,N/A,30.34,8.0,North,20.7,32.2,N/A,,Overcast,360,2013-11-21 23:35:00
5:55 PM,24.8,-9999,N/A,30.35,10.0,North,19.6,26.5,N/A,,Overcast,350,2013-11-21 23:55:00
6:15 PM,24.8,-9999,N/A,30.36,10.0,North,20.7,28.8,N/A,,Overcast,350,2013-11-22 00:15:00
6:35 PM,24.8,-9999,N/A,30.36,10.0,North,16.1,28.8,N/A,,Overcast,360,2013-11-22 00:35:00
6:55 PM,24.8,-9999,N/A,30.36,10.0,North,20.7,28.8,N/A,,Overcast,360,2013-11-22 00:55:00
7:15 PM,24.8,-9999,N/A,30.37,10.0,North,19.6,28.8,N/A,,Overcast,350,2013-11-22 01:15:00
7:35 PM,24.8,-9999,N/A,30.38,10.0,North,19.6,26.5,N/A,,Overcast,350,2013-11-22 01:35:00
7:55 PM,23.0,-9999,N/A,30.38,10.0,North,20.7,-,N/A,,Overcast,350,2013-11-22 01:55:00
8:15 PM,23.0,-9999,N/A,30.39,6.0,North,17.3,28.8,N/A,Rain,Freezing Rain,350,2013-11-22 02:15:00
8:35 PM,23.0,-9999,N/A,30.40,4.0,North,21.9,29.9,N/A,Rain,Freezing Rain,350,2013-11-22 02:35:00
8:55 PM,23.0,-9999,N/A,30.41,3.0,North,20.7,28.8,N/A,Snow,Light Snow,350,2013-11-22 02:55:00
9:15 PM,21.2,-9999,N/A,30.42,2.5,North,19.6,26.5,N/A,Snow,Light Snow,350,2013-11-22 03:15:00
9:35 PM,21.2,-9999,N/A,30.42,2.5,North,16.1,26.5,N/A,Snow,Light Snow,350,2013-11-22 03:35:00
9:55 PM,-9999,-9999,N/A,-9999,1.8,North,-9999.0,-,N/A,,Unknown,0,2013-11-22 03:55:00
10:15 PM,21.2,-9999,N/A,30.44,2.5,NNW,19.6,26.5,N/A,Snow,Light Snow,340,2013-11-22 04:15:00
10:35 PM,21.2,-9999,N/A,30.44,4.0,North,20.7,29.9,N/A,Snow,Light Snow,350,2013-11-22 04:35:00
10:55 PM,19.4,-9999,N/A,30.45,4.0,NNW,20.7,29.9,N/A,Rain,Freezing Rain,340,2013-11-22 04:55:00
11:15 PM,19.4,-9999,N/A,30.47,2.0,NNW,20.7,31.1,N/A,Snow,Light Snow,340,2013-11-22 05:15:00
11:35 PM,19.4,-9999,N/A,30.47,1.8,NNW,21.9,29.9,N/A,Snow,Light Snow,340,2013-11-22 05:35:00
11:55 PM,19.4,-9999,N/A,30.48,2.0,NNW,20.7,27.6,N/A,Snow,Light Snow,340,2013-11-22 05:55:00